Waarnemingen

Advertentie
Mijn weer
San Sebastian/Fuenterrabia, Spanje (8029): temperatuur & dauwpunt: 15.01.2018 14:00:00 - 21.01.2018 14:00:00 (CET)San Sebastian/Fuenterrabia, Spanje (8029): windsnelheid: 15.01.2018 14:00:00 - 21.01.2018 14:00:00 (CET)San Sebastian/Fuenterrabia, Spanje (8029): windrichting: 15.01.2018 14:00:00 - 21.01.2018 14:00:00 (CET)San Sebastian/Fuenterrabia, Spanje (8029): luchtdruk: 15.01.2018 14:00:00 - 21.01.2018 14:00:00 (CET)San Sebastian/Fuenterrabia, Spanje (8029): zicht: 15.01.2018 14:00:00 - 21.01.2018 14:00:00 (CET)
Datum & Tijd tt [°C] td [°C] ff [km/u] ff [kn] dd ppp [hPa] vv [km]
21.01.2018 14:00:00 - - - - - - -
21.01.2018 13:00:00 14,1 11,6 15 8 W 1029,4 7
21.01.2018 12:00:00 14,0 12,0 8 4 - - 10
21.01.2018 11:00:00 13,0 12,0 9 5 W - 3,0
21.01.2018 10:00:00 13,2 12,3 15 8 W 1027,8 2,5
21.01.2018 09:00:00 13,0 12,0 21 11 WZW - 2,0
21.01.2018 08:00:00 14,0 12,0 11 6 - - 4,0
21.01.2018 07:00:00 13,6 12,2 26 14 W 1026,3 6
21.01.2018 06:00:00 14,0 12,0 26 14 W - 10
21.01.2018 05:00:00 14,0 12,0 22 12 W - 6
21.01.2018 04:00:00 13,0 12,0 15 8 W - 3,2
21.01.2018 03:00:00 13,0 12,0 15 8 - - 2,3
21.01.2018 02:00:00 13,0 12,0 11 6 - - 2,6
21.01.2018 01:00:00 13,0 12,0 15 8 - - 2,1
21.01.2018 00:00:00 13,0 12,0 16 9 WZW - 2,2
20.01.2018 23:00:00 13,0 12,0 11 6 W - 2,5
20.01.2018 22:00:00 14,0 12,0 11 6 W - 4,9
20.01.2018 21:00:00 13,0 12,0 8 4 - - 3,2
20.01.2018 20:00:00 14,0 11,0 8 4 - - 8
20.01.2018 19:00:00 14,2 10,8 11 6 WZW 1023,2 10
20.01.2018 18:00:00 15,0 11,0 9 5 - - 9
20.01.2018 17:00:00 14,0 10,0 18 10 ZW - 10
20.01.2018 16:00:00 12,6 11,5 15 8 ZW 1021,7 6
20.01.2018 15:00:00 13,0 11,0 24 13 ZW - 8
20.01.2018 14:00:00 14,0 9,0 28 15 WZW - 7
20.01.2018 13:00:00 15,0 6,8 22 12 WZW 1022,2 15
20.01.2018 12:00:00 13,0 5,0 21 11 ZW - 10
20.01.2018 11:00:00 13,0 5,0 22 12 ZW - 10
20.01.2018 10:00:00 12,4 4,9 18 10 WZW 1022,5 10
20.01.2018 09:00:00 12,0 5,0 16 9 ZW - 10
20.01.2018 08:00:00 11,0 6,0 15 8 ZW - 10
20.01.2018 07:00:00 10,8 6,0 9 5 ZW 1022,6 15
20.01.2018 06:00:00 10,0 6,0 9 5 ZW - 10
20.01.2018 05:00:00 10,0 7,0 9 5 ZZW - 10
20.01.2018 04:00:00 10,0 8,0 9 5 ZW - 10
20.01.2018 03:00:00 11,0 8,0 8 4 WZW - 10
20.01.2018 02:00:00 12,0 7,0 4 2 - - 10
20.01.2018 01:00:00 11,0 8,0 0 0 N - 10
20.01.2018 00:00:00 11,0 8,0 2 1 - - 10
19.01.2018 23:00:00 12,0 9,0 5 3 - - 10
19.01.2018 22:00:00 12,0 8,0 8 4 WNW - 10
19.01.2018 21:00:00 12,0 8,0 9 5 W - 10
19.01.2018 20:00:00 12,0 8,0 13 7 - - 9
19.01.2018 19:00:00 11,8 7,7 18 10 WNW 1024,9 12
19.01.2018 18:00:00 12,0 8,0 4 2 - - 9
19.01.2018 17:00:00 12,0 8,0 18 10 ZW - 10
19.01.2018 16:00:00 12,1 8,2 22 12 WZW 1023,5 9
19.01.2018 15:00:00 12,0 9,0 18 10 WZW - 9
19.01.2018 14:00:00 12,0 9,0 15 8 ZW - 8
19.01.2018 13:00:00 12,6 10,1 8 4 WZW 1023,1 10
19.01.2018 12:00:00 12,0 10,0 4 2 - - 6
19.01.2018 11:00:00 12,0 10,0 11 6 WZW - 10
19.01.2018 10:00:00 11,4 9,1 9 5 ZW 1022,5 10
19.01.2018 09:00:00 12,0 10,0 9 5 ZW - 10
19.01.2018 08:00:00 12,0 10,0 13 7 WZW - 10
19.01.2018 07:00:00 12,2 10,3 9 5 W 1021,8 5
19.01.2018 06:00:00 12,0 10,0 11 6 WZW - 10
19.01.2018 05:00:00 12,0 10,0 8 4 ZW - 8
19.01.2018 04:00:00 12,0 9,0 11 6 ZW - 10
19.01.2018 03:00:00 12,0 9,0 8 4 ZW - 10
19.01.2018 02:00:00 12,0 9,0 8 4 ZW - 10
19.01.2018 01:00:00 12,0 9,0 9 5 ZW - 10
19.01.2018 00:00:00 11,0 9,0 11 6 ZW - 10
18.01.2018 23:00:00 11,0 9,0 5 3 ZW - 7
18.01.2018 22:00:00 12,0 8,0 11 6 WZW - 10
18.01.2018 21:00:00 12,0 8,0 9 5 ZW - 10
18.01.2018 20:00:00 12,0 8,0 9 5 ZW - 10
18.01.2018 19:00:00 12,2 7,9 13 7 WZW 1023,3 10
18.01.2018 18:00:00 12,0 8,0 9 5 W - 10
18.01.2018 17:00:00 13,0 8,0 13 7 WNW - 10
18.01.2018 16:00:00 13,7 7,9 11 6 WNW 1023,0 10
18.01.2018 15:00:00 14,0 7,0 8 4 W - 10
18.01.2018 14:00:00 14,0 7,0 8 4 W - 10
18.01.2018 13:00:00 13,5 5,7 9 5 ZW 1024,6 10
18.01.2018 12:00:00 12,0 6,0 5 3 ZZW - 10
18.01.2018 11:00:00 9,0 5,0 9 5 Z - 10
18.01.2018 10:00:00 6,6 4,4 11 6 Z 1025,5 10
18.01.2018 09:00:00 6,0 4,0 11 6 Z - 10
18.01.2018 08:00:00 6,0 4,0 8 4 Z - 10
18.01.2018 07:00:00 5,8 4,4 8 4 Z 1025,0 10
18.01.2018 06:00:00 7,0 5,0 11 6 Z - 10
18.01.2018 05:00:00 7,0 5,0 9 5 Z - 10
18.01.2018 04:00:00 7,0 6,0 9 5 Z - 10
18.01.2018 03:00:00 7,0 5,0 9 5 ZZW - 10
18.01.2018 02:00:00 8,0 6,0 5 3 ZZW - 10
18.01.2018 01:00:00 8,0 6,0 8 4 ZW - 10
18.01.2018 00:00:00 10,0 7,0 8 4 WZW - 10
17.01.2018 23:00:00 10,0 7,0 9 5 ZW - 9
17.01.2018 22:00:00 11,0 7,0 11 6 ZW - 10
17.01.2018 21:00:00 11,0 7,0 4 2 - - 10
17.01.2018 20:00:00 12,0 6,0 4 2 - - 10
17.01.2018 19:00:00 11,4 6,7 2 1 - 1028,7 10
17.01.2018 18:00:00 12,0 7,0 13 7 W - 10
17.01.2018 17:00:00 12,0 7,0 8 4 WNW - 10
17.01.2018 16:00:00 11,7 6,8 9 5 W 1028,2 10
17.01.2018 15:00:00 12,0 8,0 11 6 W - 10
17.01.2018 14:00:00 11,0 9,0 11 6 WNW - 10
17.01.2018 13:00:00 12,1 6,6 11 6 - 1029,2 10
17.01.2018 12:00:00 11,0 7,0 15 8 NNW - 10
17.01.2018 11:00:00 13,0 5,0 13 7 - - 10
17.01.2018 10:00:00 11,0 7,7 21 11 - 1028,5 10
17.01.2018 09:00:00 12,0 7,0 11 6 W - 10
17.01.2018 08:00:00 13,0 6,0 16 9 W - 10
17.01.2018 07:00:00 11,8 7,1 24 13 WNW 1026,3 10
17.01.2018 06:00:00 12,0 8,0 26 14 WZW - 8
17.01.2018 05:00:00 13,0 8,0 18 10 WZW - 8
17.01.2018 04:00:00 12,0 9,0 24 13 W - 6
17.01.2018 03:00:00 13,0 10,0 34 18 WNW - 9
17.01.2018 02:00:00 13,0 10,0 22 12 WZW - 10
17.01.2018 01:00:00 14,0 11,0 11 6 - - 9
17.01.2018 00:00:00 14,0 11,0 29 16 ZW - 10
16.01.2018 23:00:00 13,0 11,0 13 7 WZW - 2,6
16.01.2018 22:00:00 13,0 10,0 11 6 WZW - 9
16.01.2018 21:00:00 14,0 9,0 15 8 ZW - 10
16.01.2018 20:00:00 14,0 10,0 9 5 WZW - 10
16.01.2018 19:00:00 14,9 9,9 11 6 WZW 1022,0 10
16.01.2018 18:00:00 15,0 10,0 11 6 WZW - 10
16.01.2018 17:00:00 15,0 10,0 16 9 WZW - 10
16.01.2018 16:00:00 15,0 9,6 24 13 ZW 1022,4 10
16.01.2018 15:00:00 15,0 10,0 13 7 WZW - 10
16.01.2018 14:00:00 14,0 11,0 11 6 ZW - 10
16.01.2018 13:00:00 12,4 11,3 11 6 ZW 1024,4 6
16.01.2018 12:00:00 12,0 11,0 9 5 WZW - 6
16.01.2018 11:00:00 11,0 11,0 11 6 ZW - 3,0
16.01.2018 10:00:00 11,4 10,5 15 8 ZW 1024,4 3,0
16.01.2018 09:00:00 11,0 10,0 13 7 ZW - 2,5
16.01.2018 08:00:00 13,0 10,0 18 10 WZW - 4,0
16.01.2018 07:00:00 12,3 9,3 13 7 WZW 1022,5 6
16.01.2018 06:00:00 12,0 8,0 13 7 ZW - 6
16.01.2018 05:00:00 13,0 7,0 16 9 WZW - 10
16.01.2018 04:00:00 13,0 7,0 16 9 ZW - 9
16.01.2018 03:00:00 14,0 7,0 22 12 WZW - 10
16.01.2018 02:00:00 13,0 7,0 21 11 ZW - 10
16.01.2018 01:00:00 13,0 6,0 18 10 WZW - 10
16.01.2018 00:00:00 12,0 6,0 21 11 WZW - 10
15.01.2018 23:00:00 12,0 6,0 21 11 WZW - 10
15.01.2018 22:00:00 12,0 6,0 22 12 ZW - 10
15.01.2018 21:00:00 12,0 4,0 13 7 WZW - 10
15.01.2018 20:00:00 12,0 2,0 11 6 WZW - 10
15.01.2018 19:00:00 12,2 1,2 13 7 WZW 1021,2 10
15.01.2018 18:00:00 12,0 4,0 8 4 ZW - 10
15.01.2018 17:00:00 13,0 3,0 11 6 ZW - 10
15.01.2018 16:00:00 14,2 4,2 8 4 ZW 1021,1 10
15.01.2018 15:00:00 14,0 4,0 11 6 WZW - 10
15.01.2018 14:00:00 13,0 5,0 13 7 ZZW - 10

tt = temperatuur
td = dauwpunt
ff = windsnelheid
dd = windrichting
ppp = luchtdruk
vv = zicht

Weerstations in de omgeving